Location: Newark
(44.6028°N, 124.0883°W)
Time: 11:03:19
(UTC+00:00)

Oscar 11 - Visible Passes

Search period start: 06 December 2019 00:00
Search period end: 16 December 2019 00:00
Orbit: 612 x 626 km, 97.6° (Epoch: 05 December)

Date Brightness Start Highest point End Pass type
(mag) Time Alt. Az. Time Alt. Az. Time Alt. Az.
06 Dec 8.2 01:30:05 10° ESE 01:33:23 22° ENE 01:36:41 10° NNE visible
06 Dec 8.5 03:05:15 10° SSW 03:09:17 38° W 03:13:20 10° NNW visible
06 Dec 9.1 14:50:19 10° NNE 14:54:13 33° E 14:58:06 10° SSE visible
07 Dec 7.7 01:46:32 10° SE 01:50:20 31° ENE 01:54:10 10° N visible
07 Dec 9.2 03:22:53 10° SSW 03:26:29 25° W 03:30:05 10° NW visible
07 Dec 8.1 15:07:11 10° NNE 15:11:23 50° E 15:15:34 10° S visible
08 Dec 7.2 02:03:13 10° SE 02:07:21 46° ENE 02:11:29 10° N visible
08 Dec 9.8 03:40:52 10° SW 03:43:43 17° W 03:46:35 10° NW visible
09 Dec 6.9 02:20:06 10° SSE 02:24:23 72° ENE 02:28:42 10° N visible
09 Dec 10.3 03:59:40 10° WSW 04:01:00 11° W 04:02:21 10° WNW visible
09 Dec 10.4 14:07:27 10° ENE 14:08:59 12° E 14:10:33 10° ESE visible
10 Dec 8.8 01:04:11 10° E 01:05:57 12° ENE 01:07:41 10° NE visible
10 Dec 7.2 02:37:10 10° S 02:41:28 75° WSW 02:45:48 10° NNW visible
10 Dec 10.0 14:23:20 10° NE 14:26:17 18° E 14:29:12 10° SE visible
11 Dec 8.4 01:19:57 10° ESE 01:22:50 18° ENE 01:25:43 10° NNE visible
11 Dec 8.0 02:54:26 10° S 02:58:36 48° W 03:02:47 10° NNW visible
11 Dec 9.5 14:39:52 10° NE 14:43:31 26° E 14:47:09 10° SSE visible
12 Dec 8.0 01:36:14 10° ESE 01:39:45 25° ENE 01:43:18 10° NNE visible
12 Dec 8.8 03:11:54 10° SSW 03:15:46 32° W 03:19:39 10° NNW visible
12 Dec 8.7 14:56:39 10° NNE 15:00:42 39° E 15:04:45 10° SSE visible
13 Dec 7.5 01:52:47 10° SE 01:56:44 37° ENE 02:00:43 10° N visible
13 Dec 9.5 03:29:40 10° SW 03:32:59 21° W 03:36:19 10° NW visible
14 Dec 7.1 02:09:33 10° SSE 02:13:45 56° ENE 02:17:59 10° N visible
14 Dec 10.0 03:47:52 10° WSW 03:50:14 14° W 03:52:37 10° WNW visible
15 Dec 6.9 02:26:31 10° SSE 02:30:49 85° ENE 02:35:08 10° NNW visible
15 Dec 10.2 14:13:14 10° ENE 14:15:31 14° E 14:17:49 10° ESE visible
